Snowfall_Accumulation
0.0 0.0 0.0 0.0 0.0 0.0 0.0 0.0 0.0 0.0 0.0 0.0 0.0 0.0 0.0 0.0 0.0 0.0 0.0 0.0 0.0 0.0 0.0 0.0 0.0 0.0 0.0 0.0 0.0 0.0 0.0 0.0 0.0 0.0 0.0 0.0 0.0 0.0 0.0 0.0 0.0 0.0 0.0 0.0 0.0 0.0 0.0
0.0 0.0 0.0 0.0 0.0 0.0 0.0 0.0 0.0 0.0 0.0 0.0 0.0 0.0 0.0 0.0 0.0 0.0 0.0 0.0 0.0 0.0 0.0 0.0 0.0 0.0 0.0 0.0 0.0 0.0 0.0 0.0 0.0 0.0 0.0 0.0 0.0 0.0 0.0 0.0 0.0 0.0 0.0 0.0 0.0 0.0 0.0
0.0 0.0 0.0 0.0 0.0 0.0 0.0 0.0 0.0 0.0 0.0 0.0 0.0 0.0 0.0 0.0 0.0 0.0 0.0 0.0 0.0 0.0 0.0 0.0 0.0 0.0 0.0 0.0 0.0 0.0 0.0 0.0 0.0 0.0 0.0 0.0 0.0 0.0 0.0 0.0 0.0 0.0 0.0 0.0 0.0 0.0 0.0
0.0 0.0 0.0 0.0 0.0 0.0 0.0 0.0 0.0 0.0 0.0 0.0 0.0 0.0 0.0 0.0 0.0 0.0 0.0 0.0 0.0 0.0 0.0 0.0 0.0 0.0 0.0 0.0 0.0 0.0 0.0 0.0 0.0 0.0 0.0 0.0 0.0 0.0 0.0 0.0 0.0 0.0 0.0 0.0 0.0 0.0 0.0
0.0 0.0 0.0 0.0 0.0 0.0 0.0 0.0 0.0 0.0 0.0 0.0 0.0 0.0 0.0 0.0 0.0 0.0 0.0 0.0 0.0 0.0 0.0 0.0 0.0 0.0 0.0 0.0 0.0 0.0 0.0 0.0 0.0 0.0 0.0 0.0 0.0 0.0 0.0 0.0 0.0 0.0 0.0 0.0 0.0 0.0 0.0
0.0 0.0 0.0 0.0 0.0 0.0 0.0 0.0 0.0 0.0 0.0 0.0 0.0 0.0 0.0 0.0 0.0 0.0 0.0 0.0 0.0 0.0 0.0 0.0 0.0 0.0 0.0 0.0 0.0 0.0 0.0 0.0 0.0 0.0 0.0 0.0 0.0 0.0 0.0 0.0 0.0 0.0 0.0 0.0 0.0 0.0 0.0
0.0 0.0 0.0 0.0 0.0 0.0 0.0 0.0 0.0 0.0 0.0 0.0 0.0 0.0 0.0 0.0 0.0 0.0 0.0 0.0 0.0 0.0 0.0 0.0 0.0 0.0 0.0 0.0 0.0 0.0 0.0 0.0 0.0 0.0 0.0 0.0 0.0 0.0 0.0 0.0 0.1 0.0 0.0 0.0 0.0 0.0 0.0
0.0 0.0 0.0 0.0 0.0 0.0 0.0 0.0 0.0 0.0 0.0 0.0 0.0 0.0 0.0 0.0 0.0 0.0 0.0 0.0 0.0 0.0 0.0 0.0 0.0 0.0 0.0 0.0 0.0 0.0 0.0 0.0 0.0 0.0 0.0 0.0 0.1 0.0 0.0 0.0 0.0 0.0 0.1 0.1 0.0 0.0 0.0
0.0 0.0 0.0 0.0 0.0 0.0 0.0 0.0 0.0 0.0 0.0 0.0 0.0 0.0 0.0 0.0 0.0 0.0 0.0 0.0 0.0 0.0 0.0 0.0 0.0 0.0 0.0 0.0 0.0 0.0 0.0 0.0 0.0 0.0 0.1 0.0 0.0 0.0 0.0 0.0 0.1 0.0 0.0 0.0 0.0 0.0 0.0
0.0 0.0 0.0 0.0 0.0 0.0 0.0 0.0 0.0 0.0 0.0 0.0 0.0 0.0 0.0 0.0 0.0 0.0 0.0 0.0 0.0 0.0 0.4 0.0 0.0 0.0 0.0 0.0 0.0 0.0 0.0 0.0 0.0 0.0 0.0 0.0 0.0 0.0 0.0 0.2 0.4 0.0 0.0 0.0 0.0 0.0 1.7
0.0 0.0 0.0 0.0 0.0 0.0 0.0 0.0 0.0 0.0 0.0 0.0 0.0 0.0 0.0 0.0 0.0 0.0 0.0 0.0 0.0 0.0 1.3 0.0 0.0 0.0 0.0 0.0 0.0 0.0 0.0 0.0 0.0 0.0 0.0 0.2 0.0 0.0 0.0 0.0 0.0 0.0 0.1 0.0 0.0 0.0 0.0
0.0 0.0 0.0 0.0 0.0 0.0 0.0 0.0 0.0 0.0 0.0 0.0 0.0 0.0 0.0 0.0 0.0 0.0 0.0 0.0 0.0 2.0 2.5 0.0 0.0 0.1 0.0 0.0 0.0 0.0 0.0 0.0 0.0 0.0 0.0 0.0 0.0 0.0 0.0 0.0 0.0 0.0 0.0 0.0 0.5 0.4 2.0
0.0 0.0 0.0 0.0 0.0 0.0 0.0 0.0 0.0 0.0 0.0 0.0 0.0 0.0 0.0 0.0 0.0 0.0 0.0 0.0 9.2 7.0 0.0 0.0 0.0 0.0 0.0 0.3 0.6 0.0 0.0 1.0 0.9 0.1 0.7 0.0 0.0 0.0 0.0 0.0 0.0 0.0 0.0 2.8 2.9 3.0 0.4
0.0 0.0 0.0 0.0 0.0 0.0 0.0 0.0 0.0 0.0 0.0 0.0 0.0 0.0 0.0 0.0 0.0 0.0 0.0 1.0 13.6 0.0 0.0 0.0 0.0 0.0 1.2 1.9 1.3 1.1 0.0 0.3 0.0 0.1 0.3 0.4 2.1 0.0 0.0 0.0 0.0 0.2 0.0 1.0 5.8 4.3 1.4
0.0 0.0 0.0 0.0 0.0 0.0 0.0 0.0 0.0 0.0 0.0 0.0 0.0 0.0 0.0 0.0 0.0 0.0 0.1 16.6 2.9 0.1 0.1 0.2 0.0 0.1 1.2 1.4 2.3 1.9 0.1 0.7 0.0 0.0 1.5 1.9 3.8 0.0 0.0 0.0 0.0 0.0 0.2 0.0 4.3 1.6 5.7
0.0 0.0 0.0 0.0 0.0 0.0 0.0 0.0 0.0 0.0 0.0 0.0 0.0 0.0 0.0 0.0 0.0 0.0 6.5 7.8 0.6 0.0 0.0 0.4 2.7 2.8 2.8 0.3 2.1 1.2 0.3 0.0 0.0 0.0 0.0 2.5 7.2 0.0 0.0 0.0 0.0 0.0 0.0 3.2 7.3 11.0 8.5
0.0 0.0 0.0 0.0 0.0 0.0 0.0 0.0 0.0 0.0 0.0 0.0 0.0 1.3 0.0 0.0 0.0 3.4 15.7 0.9 0.0 0.0 0.0 1.1 3.8 3.3 3.1 4.3 2.7 4.3 3.3 0.0 0.0 0.0 0.0 0.0 8.3 0.4 0.0 0.0 0.0 0.0 0.4 1.0 0.8 1.8 7.8
0.0 0.0 0.0 0.0 0.0 0.0 0.0 0.0 0.0 0.0 0.0 0.0 0.0 17.2 0.0 0.0 13.2 18.6 8.8 0.2 0.0 0.0 0.0 0.0 2.0 3.7 5.2 5.5 5.7 10.5 5.5 1.0 0.0 0.0 0.0 0.0 1.9 0.4 0.0 0.0 0.0 0.0 0.0 0.6 6.5 5.0 10.0
0.0 0.0 0.0 0.0 0.0 0.0 0.0 0.0 0.0 0.0 0.0 0.0 5.1 5.5 0.0 0.0 20.7 10.3 1.9 0.2 0.0 0.1 0.0 0.1 0.7 4.2 5.9 6.7 8.6 7.5 4.7 0.0 0.0 0.0 0.0 0.3 1.8 1.2 1.7 0.0 0.0 0.0 0.0 0.0 1.8 4.8 15.3
0.0 0.0 0.0 0.0 0.0 0.0 0.0 0.0 0.0 0.0 0.0 0.0 1.0 26.7 5.8 5.3 2.4 2.7 3.0 2.5 2.6 0.0 0.6 0.1 1.2 3.8 5.0 4.9 3.8 5.8 6.0 0.0 0.0 0.0 0.0 0.0 3.1 4.6 5.3 5.3 2.3 3.8 1.4 0.5 6.1 16.2 9.8
0.0 0.0 0.0 0.0 0.0 0.0 0.0 0.0 0.0 0.0 0.0 0.0 9.2 24.2 0.0 19.0 14.4 5.8 4.1 5.8 4.6 3.6 0.5 0.4 2.3 1.6 2.4 4.1 2.3 2.4 2.9 2.2 0.0 0.0 0.0 0.0 8.8 5.5 4.2 5.3 2.8 2.6 8.6 7.7 5.0 4.8 7.6
0.0 0.0 0.0 0.0 0.0 0.0 0.0 0.0 0.0 0.0 0.0 0.0 48.4 9.3 1.6 3.0 0.1 5.1 8.1 8.4 3.4 0.8 2.4 1.9 0.7 0.3 0.7 1.7 1.8 0.8 0.8 1.9 2.0 0.0 0.0 0.0 7.4 8.4 6.3 5.7 2.9 5.7 8.5 5.4 3.9 5.6 6.1
0.0 0.0 0.0 0.0 0.0 0.0 0.0 0.0 0.0 0.0 0.0 0.0 0.0 0.0 4.1 2.3 1.8 6.2 6.1 2.9 2.1 1.7 0.3 0.0 1.6 2.6 1.7 0.1 0.0 0.0 0.0 0.0 0.0 0.1 0.1 2.4 4.8 5.0 5.6 2.0 1.6 5.9 8.0 4.9 2.9 1.4 1.7
0.0 0.0 0.0 0.0 0.0 0.0 0.0 0.0 0.0 0.0 0.0 0.0 0.0 0.4 13.1 14.8 7.1 4.2 1.3 1.3 3.4 2.3 3.6 1.0 0.0 1.6 0.0 0.0 0.0 0.0 0.0 0.0 0.0 0.0 0.0 1.5 2.9 5.6 5.2 3.8 11.0 5.5 2.4 0.9 0.2 0.4 0.5
0.0 0.0 0.0 0.0 0.0 0.0 0.0 0.0 0.0 0.0 0.0 0.0 0.0 0.0 9.9 12.5 2.4 3.4 3.4 2.7 0.6 1.0 2.8 1.0 0.0 0.0 0.0 0.0 4.7 5.3 2.5 1.8 0.0 0.0 0.0 0.0 2.2 7.4 8.9 4.4 4.1 1.3 0.9 0.5 0.7 1.0 0.7
0.0 0.0 0.0 0.0 0.0 0.0 0.0 0.0 0.0 0.0 0.0 0.0 0.0 0.0 0.2 14.9 4.1 0.5 3.1 2.3 2.5 2.7 2.1 0.7 0.0 0.0 0.0 1.7 7.2 8.2 4.6 2.5 1.4 0.9 0.0 0.0 1.0 9.0 9.9 7.6 3.8 1.1 0.3 0.1 0.1 1.1 0.6
0.0 0.0 0.0 0.0 0.0 0.0 0.0 0.0 0.0 0.0 0.0 0.0 0.0 0.0 0.0 23.2 0.0 0.0 0.7 1.4 0.0 1.3 5.3 0.0 0.9 0.0 0.0 6.4 6.8 4.1 2.4 1.3 2.9 1.7 1.9 3.4 4.8 11.2 8.7 10.1 3.1 0.1 0.8 0.5 2.3 4.5 0.6
0.0 0.0 0.0 0.0 0.0 0.0 0.0 0.0 0.0 0.0 0.0 0.0 0.0 0.0 0.0 16.1 0.1 0.0 0.0 0.0 0.4 0.5 3.0 1.4 6.0 4.4 9.5 11.3 8.2 5.8 4.2 2.3 1.8 1.1 1.7 0.7 4.1 4.0 6.5 9.5 4.4 0.2 1.4 2.5 1.7 1.0 0.4
0.0 0.0 0.0 0.0 0.0 0.0 0.0 0.0 0.0 0.0 0.0 0.0 0.0 0.0 0.0 1.9 0.0 0.0 0.0 0.0 0.0 0.0 0.0 1.1 3.7 3.3 1.2 8.8 5.4 4.7 3.2 3.9 1.9 5.5 1.0 5.6 1.9 2.7 3.2 5.6 2.5 1.6 2.0 1.4 0.6 0.5 1.1